Welcome to Northern Hawkes Bay. New Zealand.
PWS Header
      nz Flag



Hit Counter


W3C Valid W3C Valid logo


    Wairoa

Select any of the Stations below to visit their websites.










Historic Data from Weather Underground
Select the location of interest below. Wairoa is the default. Please have patience, this Data is slow to load in.
Northern Hawkes Bay Historical Data
Daily Summary for March 23, 2017 Units:  Metric    English   Both
« Previous Day
Next Day »
Daily Weekly Monthly Yearly Custom
  High: Low: Average:
Temperature: 19.8 °C 15.3 °C 17 °C
Dew Point: 18.3 °C 14.2 °C 15.3 °C
Humidity: 97% 79% 90%
Wind Speed: 21.9km/h 0.0km/h 3.9km/h
Wind Gust: 36.7km/h - -
Wind- - SE
Pressure: 1020.2 hPa 1013.1 hPa -
Precipitation: 0.0 mm    
Historical Graphs
 
 
Tabular Data for March 23, 2017
Time Temperature Dew Point Pressure Wind Wind Speed Wind Gust Humidity Rainfall Rate (Hourly) solar
00:03 19.8 °C 18.3 °C 1013.4 hPa Calm   11.1 km/h 91% 0.0 mm 0 W/m2
00:08 19.7 °C 18.2 °C 1013.1 hPa South 2.6 km/h 3.5 km/h 91% 0.0 mm 0 W/m2
00:13 19.7 °C 18.2 °C 1013.4 hPa Calm   3.5 km/h 91% 0.0 mm 0 W/m2
00:18 19.6 °C 18.1 °C 1013.4 hPa Calm   3.5 km/h 91% 0.0 mm 0 W/m2
00:23 19.6 °C 17.9 °C 1013.4 hPa South 2.6 km/h 7.2 km/h 90% 0.0 mm 0 W/m2
00:29 19.5 °C 17.8 °C 1013.4 hPa South 5.0 km/h 7.2 km/h 90% 0.0 mm 0 W/m2
00:34 19.5 °C 17.7 °C 1013.4 hPa Calm   7.2 km/h 89% 0.0 mm 0 W/m2
00:39 19.5 °C 17.7 °C 1013.4 hPa Calm   7.2 km/h 89% 0.0 mm 0 W/m2
00:44 19.5 °C 17.7 °C 1013.4 hPa Calm     89% 0.0 mm 0 W/m2
00:49 19.5 °C 17.7 °C 1013.4 hPa Calm     89% 0.0 mm 0 W/m2
00:54 19.4 °C 17.4 °C 1013.4 hPa SSW 2.6 km/h 9.7 km/h 88% 0.0 mm 0 W/m2
00:59 19.4 °C 17.4 °C 1013.4 hPa South 1.1 km/h 9.7 km/h 88% 0.0 mm 0 W/m2
01:04 19.4 °C 17.2 °C 1013.4 hPa Calm   7.2 km/h 87% 0.0 mm 0 W/m2
01:09 19.4 °C 17.2 °C 1013.4 hPa Calm   7.2 km/h 87% 0.0 mm 0 W/m2
01:14 19.3 °C 17.1 °C 1013.4 hPa Calm     87% 0.0 mm 0 W/m2
01:19 19.3 °C 17.1 °C 1013.4 hPa Calm     87% 0.0 mm 0 W/m2
01:24 19.3 °C 17.1 °C 1013.4 hPa Calm     87% 0.0 mm 0 W/m2
01:29 19.3 °C 17.1 °C 1013.4 hPa Calm     87% 0.0 mm 0 W/m2
01:34 19.3 °C 17.1 °C 1013.4 hPa SW 1.1 km/h 5.0 km/h 87% 0.0 mm 0 W/m2
01:39 19.2 °C 17.0 °C 1013.4 hPa South 3.5 km/h 7.2 km/h 87% 0.0 mm 0 W/m2
01:44 19.2 °C 17.0 °C 1013.4 hPa Calm   7.2 km/h 87% 0.0 mm 0 W/m2
01:49 19.2 °C 17.0 °C 1013.4 hPa South 1.1 km/h 6.1 km/h 87% 0.0 mm 0 W/m2
01:54 19.1 °C 17.1 °C 1013.4 hPa Calm   5.0 km/h 88% 0.0 mm 0 W/m2
01:59 19.0 °C 17.0 °C 1013.4 hPa South 2.6 km/h 8.7 km/h 88% 0.0 mm 0 W/m2
02:04 19.0 °C 17.2 °C 1013.4 hPa Calm   8.7 km/h 89% 0.0 mm 0 W/m2
02:09 19.0 °C 17.2 °C 1013.8 hPa South 5.0 km/h 12.2 km/h 89% 0.0 mm 0 W/m2
02:14 19.0 °C 17.0 °C 1013.4 hPa SSW 6.1 km/h 12.2 km/h 88% 0.0 mm 0 W/m2
02:19 18.9 °C 17.2 °C 1013.4 hPa Calm   7.2 km/h 90% 0.0 mm 0 W/m2
02:24 19.0 °C 17.2 °C 1013.8 hPa SSW 2.6 km/h 7.2 km/h 89% 0.0 mm 0 W/m2
02:29 18.9 °C 17.1 °C 1013.4 hPa SSW 2.6 km/h 6.1 km/h 89% 0.0 mm 0 W/m2
02:34 18.9 °C 17.1 °C 1013.4 hPa Calm   6.1 km/h 89% 0.0 mm 0 W/m2
02:39 18.9 °C 17.1 °C 1013.4 hPa Calm   3.5 km/h 89% 0.0 mm 0 W/m2
02:44 18.8 °C 17.1 °C 1013.8 hPa Calm   8.7 km/h 90% 0.0 mm 0 W/m2
02:49 18.8 °C 16.9 °C 1013.4 hPa SSW 5.0 km/h 11.1 km/h 89% 0.0 mm 0 W/m2
02:54 18.9 °C 17.1 °C 1013.8 hPa Calm   11.1 km/h 89% 0.0 mm 0 W/m2
02:59 18.9 °C 16.9 °C 1013.4 hPa Calm   7.2 km/h 88% 0.0 mm 0 W/m2
03:04 18.9 °C 16.9 °C 1013.8 hPa Calm   3.5 km/h 88% 0.0 mm 0 W/m2
03:09 18.9 °C 16.9 °C 1013.4 hPa SW 3.5 km/h 8.7 km/h 88% 0.0 mm 0 W/m2
03:14 18.9 °C 16.9 °C 1013.8 hPa Calm   8.7 km/h 88% 0.0 mm 0 W/m2
03:19 18.9 °C 16.9 °C 1013.8 hPa SSW 5.0 km/h 8.7 km/h 88% 0.0 mm 0 W/m2
03:24 18.9 °C 16.9 °C 1013.8 hPa SSW 7.2 km/h 12.2 km/h 88% 0.0 mm 0 W/m2
03:29 18.9 °C 16.9 °C 1013.4 hPa SSW 3.5 km/h 12.2 km/h 88% 0.0 mm 0 W/m2
03:34 18.9 °C 16.9 °C 1013.8 hPa SSW 5.0 km/h 12.2 km/h 88% 0.0 mm 0 W/m2
03:39 18.9 °C 16.9 °C 1013.8 hPa SSW 5.0 km/h 11.1 km/h 88% 0.0 mm 0 W/m2
03:45 18.8 °C 16.8 °C 1013.8 hPa South 5.0 km/h 12.2 km/h 88% 0.0 mm 0 W/m2
03:50 18.8 °C 16.6 °C 1013.8 hPa South 6.1 km/h 12.2 km/h 87% 0.0 mm 0 W/m2
03:55 18.8 °C 16.6 °C 1013.8 hPa South 8.7 km/h 11.1 km/h 87% 0.0 mm 0 W/m2
04:00 18.7 °C 16.3 °C 1013.8 hPa South 14.8 km/h 20.9 km/h 86% 0.0 mm 0 W/m2
04:05 18.6 °C 16.2 °C 1013.8 hPa South 7.2 km/h 20.9 km/h 86% 0.0 mm 0 W/m2
04:10 18.5 °C 16.3 °C 1014.1 hPa South 1.1 km/h 17.2 km/h 87% 0.0 mm 0 W/m2
04:15 18.4 °C 16.2 °C 1013.8 hPa SSW 5.0 km/h 9.7 km/h 87% 0.0 mm 0 W/m2
04:20 18.4 °C 16.4 °C 1014.1 hPa SSW 6.1 km/h 8.7 km/h 88% 0.0 mm 0 W/m2
04:25 18.5 °C 16.5 °C 1014.4 hPa SSW 8.7 km/h 13.4 km/h 88% 0.0 mm 0 W/m2
04:30 18.5 °C 16.5 °C 1014.4 hPa SSW 11.1 km/h 14.8 km/h 88% 0.0 mm 0 W/m2
04:35 18.5 °C 16.5 °C 1014.1 hPa South 12.2 km/h 18.3 km/h 88% 0.0 mm 0 W/m2
04:40 18.5 °C 16.5 °C 1014.1 hPa South 8.7 km/h 18.3 km/h 88% 0.0 mm 0 W/m2
04:45 18.5 °C 16.5 °C 1014.1 hPa SSW 11.1 km/h 19.5 km/h 88% 0.0 mm 0 W/m2
04:50 18.4 °C 16.6 °C 1014.1 hPa SSW 11.1 km/h 19.5 km/h 89% 0.0 mm 0 W/m2
04:55 18.4 °C 16.6 °C 1014.4 hPa SSW 13.4 km/h 18.3 km/h 89% 0.0 mm 0 W/m2
05:00 18.4 °C 16.6 °C 1014.1 hPa SSW 9.7 km/h 19.5 km/h 89% 0.0 mm 0 W/m2
05:05 18.4 °C 16.6 °C 1014.1 hPa SW 7.2 km/h 19.5 km/h 89% 0.0 mm 0 W/m2
05:10 18.5 °C 16.7 °C 1014.4 hPa SSW 8.7 km/h 15.8 km/h 89% 0.0 mm 0 W/m2
05:15 18.5 °C 16.7 °C 1014.4 hPa SSW 15.8 km/h 24.5 km/h 89% 0.0 mm 0 W/m2
05:20 18.6 °C 16.8 °C 1014.4 hPa SSW 15.8 km/h 27.0 km/h 89% 0.0 mm 0 W/m2
05:25 18.5 °C 16.5 °C 1014.4 hPa SSW 14.8 km/h 27.0 km/h 88% 0.0 mm 0 W/m2
05:30 18.5 °C 16.5 °C 1014.8 hPa SW 11.1 km/h 23.3 km/h 88% 0.0 mm 0 W/m2
05:35 18.5 °C 16.5 °C 1014.8 hPa SSW 12.2 km/h 25.6 km/h 88% 0.0 mm 0 W/m2
05:40 18.4 °C 16.6 °C 1014.8 hPa SSW 14.8 km/h 25.6 km/h 89% 0.0 mm 0 W/m2
05:45 18.3 °C 16.7 °C 1014.8 hPa SSW 18.3 km/h 24.5 km/h 90% 0.0 mm 0 W/m2
05:50 18.2 °C 16.7 °C 1015.1 hPa SSW 20.9 km/h 31.7 km/h 91% 0.0 mm 0 W/m2
05:55 18.1 °C 16.6 °C 1015.1 hPa SW 19.5 km/h 31.7 km/h 91% 0.0 mm 0 W/m2
06:00 17.9 °C 16.6 °C 1015.1 hPa SW 17.2 km/h 31.7 km/h 92% 0.0 mm 0 W/m2
06:06 17.7 °C 16.4 °C 1014.8 hPa SSW 19.5 km/h 33.1 km/h 92% 0.0 mm 0 W/m2
06:11 17.6 °C 16.4 °C 1015.1 hPa SW 14.8 km/h 36.7 km/h 93% 0.0 mm 0 W/m2
06:16 17.5 °C 16.4 °C 1015.1 hPa SW 14.8 km/h 36.7 km/h 93% 0.0 mm 0 W/m2
06:21 17.4 °C 16.4 °C 1015.1 hPa SW 21.9 km/h 27.0 km/h 94% 0.0 mm 0 W/m2
06:26 17.3 °C 16.3 °C 1015.5 hPa WSW 12.2 km/h 35.6 km/h 94% 0.0 mm 0 W/m2
06:31 17.3 °C 16.3 °C 1015.1 hPa WSW 14.8 km/h 35.6 km/h 94% 0.0 mm 0 W/m2
06:36 17.3 °C 16.2 °C 1015.5 hPa SW 18.3 km/h 31.7 km/h 93% 0.0 mm 0 W/m2
06:41 17.3 °C 16.2 °C 1015.5 hPa SW 14.8 km/h 31.7 km/h 93% 0.0 mm 0 W/m2
06:46 17.3 °C 16.3 °C 1015.5 hPa SW 8.7 km/h 29.4 km/h 94% 0.0 mm 0 W/m2
06:51 17.3 °C 16.3 °C 1015.5 hPa SW 9.7 km/h 21.9 km/h 94% 0.0 mm 0 W/m2
06:56 17.3 °C 16.3 °C 1015.5 hPa SW 7.2 km/h 18.3 km/h 94% 0.0 mm 0 W/m2
07:01 17.4 °C 16.6 °C 1015.1 hPa SW 7.2 km/h 19.5 km/h 95% 0.0 mm 0 W/m2
07:06 17.6 °C 16.8 °C 1015.1 hPa SW 9.7 km/h 19.5 km/h 95% 0.0 mm 0 W/m2
07:11 17.7 °C 17.1 °C 1015.5 hPa SW 9.7 km/h 20.9 km/h 96% 0.0 mm 0 W/m2
07:16 17.6 °C 16.9 °C 1015.1 hPa SSW 13.4 km/h 20.9 km/h 96% 0.0 mm 1 W/m2
07:21 17.6 °C 16.9 °C 1015.5 hPa SSW 11.1 km/h 21.9 km/h 96% 0.0 mm 2 W/m2
07:26 17.5 °C 16.9 °C 1015.5 hPa South 17.2 km/h 25.6 km/h 96% 0.0 mm 4 W/m2
07:31 17.3 °C 16.5 °C 1015.5 hPa South 12.2 km/h 25.6 km/h 95% 0.0 mm 6 W/m2
07:36 17.3 °C 16.7 °C 1015.5 hPa South 9.7 km/h 24.5 km/h 96% 0.0 mm 8 W/m2
07:41 17.3 °C 16.7 °C 1015.5 hPa SSE 11.1 km/h 20.9 km/h 96% 0.0 mm 9 W/m2
07:46 17.1 °C 16.3 °C 1015.8 hPa SSE 6.1 km/h 27.0 km/h 95% 0.0 mm 13 W/m2
07:51 17.1 °C 16.3 °C 1015.8 hPa SSE 13.4 km/h 27.0 km/h 95% 0.0 mm 12 W/m2
07:56 16.9 °C 16.3 °C 1015.8 hPa South 15.8 km/h 33.1 km/h 96% 0.0 mm 9 W/m2
08:01 16.8 °C 16.2 °C 1015.8 hPa South 8.7 km/h 33.1 km/h 96% 0.0 mm 13 W/m2
08:06 16.8 °C 16.0 °C 1016.1 hPa South 8.7 km/h 25.6 km/h 95% 0.0 mm 16 W/m2
08:11 16.8 °C 16.0 °C 1016.1 hPa SSE 13.4 km/h 20.9 km/h 95% 0.0 mm 14 W/m2
08:16 16.8 °C 15.8 °C 1016.5 hPa SSE 12.2 km/h 24.5 km/h 94% 0.0 mm 16 W/m2
08:21 16.8 °C 15.8 °C 1016.5 hPa SSE 11.1 km/h 24.5 km/h 94% 0.0 mm 17 W/m2
08:26 16.8 °C 15.7 °C 1016.5 hPa SSE 12.2 km/h 20.9 km/h 93% 0.0 mm 21 W/m2
08:27 16.8 °C 15.7 °C 1016.5 hPa SSE 6.1 km/h 20.9 km/h 93% 0.0 mm 20 W/m2
08:31 16.9 °C 15.8 °C 1016.8 hPa SSE 9.7 km/h 20.9 km/h 93% 0.0 mm 16 W/m2
08:33 16.9 °C 15.8 °C 1016.5 hPa SSE 9.7 km/h 20.9 km/h 93% 0.0 mm 16 W/m2
08:36 16.8 °C 15.7 °C 1016.8 hPa South 13.4 km/h 24.5 km/h 93% 0.0 mm 25 W/m2
08:38 16.8 °C 15.7 °C 1016.8 hPa South 15.8 km/h 27.0 km/h 93% 0.0 mm 25 W/m2
08:40 16.7 °C 15.6 °C 1016.8 hPa South 9.7 km/h 27.0 km/h 93% 0.0 mm 23 W/m2
08:43 16.7 °C 15.7 °C 1016.8 hPa South 6.1 km/h 27.0 km/h 94% 0.0 mm 23 W/m2
08:48 16.7 °C 15.6 °C 1016.8 hPa South 11.1 km/h 20.9 km/h 93% 0.0 mm 21 W/m2
08:51 16.6 °C 15.3 °C 1017.2 hPa South 3.5 km/h 17.2 km/h 92% 0.0 mm 21 W/m2
08:56 16.6 °C 15.3 °C 1016.8 hPa SSE 7.2 km/h 17.2 km/h 92% 0.0 mm 37 W/m2
09:01 16.6 °C 15.1 °C 1017.2 hPa SE 6.1 km/h 15.8 km/h 91% 0.0 mm 39 W/m2
09:04 16.7 °C 15.1 °C 1017.2 hPa SE 7.2 km/h 15.8 km/h 90% 0.0 mm 44 W/m2
09:09 16.8 °C 15.0 °C 1016.8 hPa SSE 5.0 km/h 15.8 km/h 89% 0.0 mm 56 W/m2
09:12 16.9 °C 15.1 °C 1016.8 hPa SE 1.1 km/h 15.8 km/h 89% 0.0 mm 59 W/m2
09:16 17.0 °C 14.8 °C 1016.8 hPa SSE 9.7 km/h 12.2 km/h 87% 0.0 mm 74 W/m2
09:21 17.2 °C 14.8 °C 1017.2 hPa Calm   11.1 km/h 86% 0.0 mm 81 W/m2
09:26 17.3 °C 14.8 °C 1016.8 hPa South 5.0 km/h 11.1 km/h 85% 0.0 mm 67 W/m2
09:31 17.3 °C 14.6 °C 1017.2 hPa South 5.0 km/h 9.7 km/h 84% 0.0 mm 52 W/m2
09:34 17.5 °C 14.8 °C 1017.2 hPa South 6.1 km/h 9.7 km/h 84% 0.0 mm 54 W/m2
09:37 17.5 °C 14.8 °C 1016.8 hPa SSE 2.6 km/h 9.7 km/h 84% 0.0 mm 68 W/m2
09:42 17.5 °C 14.8 °C 1017.2 hPa Calm   8.7 km/h 84% 0.0 mm 64 W/m2
09:57 17.5 °C 15.5 °C 1017.8 hPa Calm     88% 0.0 mm 187 W/m2
10:27 17.4 °C 15.1 °C 1018.2 hPa SW 1.1 km/h 5.0 km/h 86% 0.0 mm 124 W/m2
10:57 17.4 °C 15.2 °C 1018.2 hPa West 3.5 km/h 6.1 km/h 87% 0.0 mm 211 W/m2
11:27 17.1 °C 14.9 °C 1018.5 hPa SW 6.1 km/h 9.7 km/h 87% 0.0 mm 160 W/m2
11:57 17.7 °C 15.2 °C 1018.8 hPa South 11.1 km/h 17.2 km/h 85% 0.0 mm 91 W/m2
12:27 17.4 °C 15.6 °C 1018.8 hPa South 13.4 km/h 18.3 km/h 89% 0.0 mm 332 W/m2
12:57 18.8 °C 15.1 °C 1018.8 hPa South 11.1 km/h 15.8 km/h 79% 0.0 mm 280 W/m2
13:27 18.6 °C 15.4 °C 1018.8 hPa South 11.1 km/h 15.8 km/h 82% 0.0 mm 219 W/m2
13:57 18.0 °C 15.6 °C 1018.8 hPa East 9.7 km/h 12.2 km/h 86% 0.0 mm 191 W/m2
14:27 17.0 °C 15.3 °C 1018.8 hPa SE 2.6 km/h 7.2 km/h 90% 0.0 mm 159 W/m2
14:56 17.1 °C 15.8 °C 1018.5 hPa Calm   3.5 km/h 92% 0.0 mm 180 W/m2
14:57 17.1 °C 15.8 °C 1018.5 hPa SE 3.5 km/h 6.1 km/h 92% 0.0 mm 180 W/m2
14:58 17.1 °C 15.8 °C 1018.5 hPa SSE 5.0 km/h 7.2 km/h 92% 0.0 mm 184 W/m2
14:59 17.1 °C 15.8 °C 1018.5 hPa SSE 2.6 km/h 7.2 km/h 92% 0.0 mm 182 W/m2
15:00 17.1 °C 15.8 °C 1018.5 hPa SSE 1.1 km/h 7.2 km/h 92% 0.0 mm 177 W/m2
15:01 17.1 °C 15.8 °C 1018.5 hPa Calm   7.2 km/h 92% 0.0 mm 170 W/m2
15:02 17.1 °C 15.8 °C 1018.5 hPa SE 1.1 km/h 7.2 km/h 92% 0.0 mm 164 W/m2
15:03 17.1 °C 15.8 °C 1018.5 hPa SE 6.1 km/h 11.1 km/h 92% 0.0 mm 166 W/m2
15:04 17.1 °C 15.8 °C 1018.5 hPa SE 3.5 km/h 11.1 km/h 92% 0.0 mm 167 W/m2
15:05 17.0 °C 15.7 °C 1018.5 hPa SE 2.6 km/h 11.1 km/h 92% 0.0 mm 167 W/m2
15:06 17.0 °C 15.6 °C 1018.5 hPa SE 5.0 km/h 11.1 km/h 91% 0.0 mm 157 W/m2
15:07 16.9 °C 15.6 °C 1018.5 hPa Calm   11.1 km/h 92% 0.0 mm 143 W/m2
15:08 16.9 °C 15.6 °C 1018.5 hPa SE 1.1 km/h 11.1 km/h 92% 0.0 mm 129 W/m2
15:10 16.9 °C 15.6 °C 1018.5 hPa SE 2.6 km/h 11.1 km/h 92% 0.0 mm 120 W/m2
15:11 16.9 °C 15.6 °C 1018.5 hPa SE 3.5 km/h 11.1 km/h 92% 0.0 mm 125 W/m2
15:12 16.9 °C 15.6 °C 1018.5 hPa SE 3.5 km/h 11.1 km/h 92% 0.0 mm 124 W/m2
15:13 16.9 °C 15.6 °C 1018.5 hPa ESE 1.1 km/h 11.1 km/h 92% 0.0 mm 122 W/m2
15:14 16.9 °C 15.6 °C 1018.5 hPa ESE 2.6 km/h 11.1 km/h 92% 0.0 mm 116 W/m2
15:15 16.8 °C 15.5 °C 1018.5 hPa ESE 3.5 km/h 11.1 km/h 92% 0.0 mm 112 W/m2
15:16 16.8 °C 15.5 °C 1018.8 hPa ESE 1.1 km/h 11.1 km/h 92% 0.0 mm 105 W/m2
15:17 16.8 °C 15.5 °C 1018.5 hPa ESE 1.1 km/h 11.1 km/h 92% 0.0 mm 101 W/m2
15:18 16.8 °C 15.5 °C 1018.5 hPa Calm   11.1 km/h 92% 0.0 mm 98 W/m2
15:19 16.8 °C 15.5 °C 1018.2 hPa ESE 1.1 km/h 11.1 km/h 92% 0.0 mm 95 W/m2
15:20 16.8 °C 15.5 °C 1018.5 hPa ESE 2.6 km/h 11.1 km/h 92% 0.0 mm 91 W/m2
15:21 16.7 °C 15.4 °C 1018.2 hPa ESE 3.5 km/h 11.1 km/h 92% 0.0 mm 89 W/m2
15:22 16.7 °C 15.4 °C 1018.5 hPa SE 3.5 km/h 11.1 km/h 92% 0.0 mm 93 W/m2
15:23 16.6 °C 15.3 °C 1018.5 hPa SSE 7.2 km/h 9.7 km/h 92% 0.0 mm 90 W/m2
15:24 16.6 °C 15.3 °C 1018.5 hPa SSE 3.5 km/h 9.7 km/h 92% 0.0 mm 72 W/m2
15:25 16.5 °C 15.2 °C 1018.5 hPa South 5.0 km/h 9.7 km/h 92% 0.0 mm 61 W/m2
15:26 16.5 °C 15.2 °C 1018.5 hPa South 2.6 km/h 9.7 km/h 92% 0.0 mm 75 W/m2
15:27 16.5 °C 15.2 °C 1018.5 hPa Calm   9.7 km/h 92% 0.0 mm 98 W/m2
15:28 16.5 °C 15.2 °C 1018.5 hPa Calm   9.7 km/h 92% 0.0 mm 106 W/m2
15:29 16.6 °C 15.3 °C 1018.5 hPa Calm   9.7 km/h 92% 0.0 mm 99 W/m2
15:30 16.6 °C 15.3 °C 1018.5 hPa Calm   9.7 km/h 92% 0.0 mm 93 W/m2
15:31 16.7 °C 15.4 °C 1018.5 hPa Calm   9.7 km/h 92% 0.0 mm 91 W/m2
15:32 16.7 °C 15.4 °C 1018.5 hPa Calm   9.7 km/h 92% 0.0 mm 85 W/m2
15:33 16.7 °C 15.4 °C 1018.5 hPa South 1.1 km/h 9.7 km/h 92% 0.0 mm 82 W/m2
15:34 16.7 °C 15.4 °C 1018.5 hPa Calm   6.1 km/h 92% 0.0 mm 87 W/m2
15:35 16.7 °C 15.4 °C 1018.5 hPa Calm   6.1 km/h 92% 0.0 mm 93 W/m2
15:36 16.8 °C 15.5 °C 1018.5 hPa Calm   6.1 km/h 92% 0.0 mm 96 W/m2
15:37 16.8 °C 15.5 °C 1018.2 hPa ESE 5.0 km/h 8.7 km/h 92% 0.0 mm 98 W/m2
15:38 16.8 °C 15.3 °C 1018.5 hPa SE 2.6 km/h 8.7 km/h 91% 0.0 mm 90 W/m2
15:39 16.8 °C 15.3 °C 1018.5 hPa SE 2.6 km/h 8.7 km/h 91% 0.0 mm 80 W/m2
15:41 16.7 °C 15.1 °C 1018.5 hPa SE 5.0 km/h 8.7 km/h 90% 0.0 mm 72 W/m2
15:42 16.7 °C 15.1 °C 1018.5 hPa SE 6.1 km/h 8.7 km/h 90% 0.0 mm 76 W/m2
15:43 16.7 °C 15.1 °C 1018.5 hPa SSE 9.7 km/h 12.2 km/h 90% 0.0 mm 77 W/m2
15:44 16.7 °C 15.1 °C 1018.5 hPa SSE 7.2 km/h 12.2 km/h 90% 0.0 mm 72 W/m2
15:45 16.7 °C 15.1 °C 1018.5 hPa SSE 8.7 km/h 14.8 km/h 90% 0.0 mm 69 W/m2
15:46 16.7 °C 15.1 °C 1018.5 hPa SSE 6.1 km/h 14.8 km/h 90% 0.0 mm 67 W/m2
15:47 16.6 °C 15.1 °C 1018.5 hPa SSE 8.7 km/h 14.8 km/h 91% 0.0 mm 68 W/m2
15:48 16.6 °C 15.1 °C 1018.5 hPa SSE 8.7 km/h 14.8 km/h 91% 0.0 mm 73 W/m2
15:49 16.5 °C 15.2 °C 1018.5 hPa SSE 5.0 km/h 14.8 km/h 92% 0.0 mm 76 W/m2
15:50 16.5 °C 15.2 °C 1018.5 hPa South 6.1 km/h 14.8 km/h 92% 0.0 mm 71 W/m2
15:51 16.5 °C 15.2 °C 1018.5 hPa South 1.1 km/h 14.8 km/h 92% 0.0 mm 65 W/m2
15:52 16.5 °C 15.2 °C 1018.2 hPa South 5.0 km/h 14.8 km/h 92% 0.0 mm 63 W/m2
15:53 16.5 °C 15.2 °C 1018.2 hPa South 8.7 km/h 14.8 km/h 92% 0.0 mm 69 W/m2
15:54 16.4 °C 15.3 °C 1018.2 hPa South 7.2 km/h 14.8 km/h 93% 0.0 mm 85 W/m2
15:55 16.4 °C 15.3 °C 1018.2 hPa South 7.2 km/h 14.8 km/h 93% 0.0 mm 110 W/m2
15:56 16.4 °C 15.3 °C 1018.5 hPa SSW 5.0 km/h 13.4 km/h 93% 0.0 mm 133 W/m2
15:57 16.4 °C 15.3 °C 1018.2 hPa SSW 3.5 km/h 13.4 km/h 93% 0.0 mm 128 W/m2
15:58 16.4 °C 15.3 °C 1018.2 hPa SSW 1.1 km/h 13.4 km/h 93% 0.0 mm 110 W/m2
15:59 16.4 °C 15.3 °C 1018.2 hPa Calm   13.4 km/h 93% 0.0 mm 96 W/m2
16:00 16.4 °C 15.3 °C 1018.2 hPa Calm   13.4 km/h 93% 0.0 mm 93 W/m2
16:01 16.5 °C 15.6 °C 1018.2 hPa Calm   13.4 km/h 94% 0.0 mm 94 W/m2
16:02 16.4 °C 15.4 °C 1018.2 hPa Calm   13.4 km/h 94% 0.0 mm 89 W/m2
16:03 16.4 °C 15.4 °C 1018.2 hPa Calm   12.2 km/h 94% 0.0 mm 82 W/m2
16:04 16.4 °C 15.4 °C 1018.2 hPa Calm   11.1 km/h 94% 0.0 mm 84 W/m2
16:05 16.5 °C 15.6 °C 1018.2 hPa South 6.1 km/h 11.1 km/h 94% 0.0 mm 86 W/m2
16:06 16.5 °C 15.6 °C 1018.2 hPa South 5.0 km/h 11.1 km/h 94% 0.0 mm 86 W/m2
16:07 16.5 °C 15.6 °C 1018.2 hPa South 6.1 km/h 11.1 km/h 94% 0.0 mm 86 W/m2
16:08 16.4 °C 15.4 °C 1018.2 hPa SSE 3.5 km/h 11.1 km/h 94% 0.0 mm 88 W/m2
16:09 16.4 °C 15.3 °C 1018.2 hPa Calm   11.1 km/h 93% 0.0 mm 86 W/m2
16:10 16.4 °C 15.3 °C 1018.2 hPa Calm   11.1 km/h 93% 0.0 mm 81 W/m2
16:11 16.5 °C 15.4 °C 1018.2 hPa Calm   11.1 km/h 93% 0.0 mm 80 W/m2
16:12 16.5 °C 15.6 °C 1018.2 hPa Calm   11.1 km/h 94% 0.0 mm 80 W/m2
16:13 16.6 °C 15.7 °C 1018.5 hPa SSE 1.1 km/h 11.1 km/h 94% 0.0 mm 80 W/m2
16:14 16.7 °C 15.7 °C 1018.2 hPa Calm   11.1 km/h 94% 0.0 mm 86 W/m2
16:15 16.7 °C 15.7 °C 1018.5 hPa Calm   11.1 km/h 94% 0.0 mm 91 W/m2
16:16 16.8 °C 15.8 °C 1018.2 hPa Calm   8.7 km/h 94% 0.0 mm 89 W/m2
16:17 16.8 °C 15.8 °C 1018.2 hPa SSE 2.6 km/h 7.2 km/h 94% 0.0 mm 88 W/m2
16:18 16.8 °C 15.8 °C 1018.2 hPa SSW 2.6 km/h 8.7 km/h 94% 0.0 mm 89 W/m2
16:19 16.8 °C 15.7 °C 1018.2 hPa Calm   8.7 km/h 93% 0.0 mm 95 W/m2
16:20 16.8 °C 15.7 °C 1018.2 hPa Calm   8.7 km/h 93% 0.0 mm 98 W/m2
16:21 16.9 °C 15.8 °C 1018.2 hPa SSE 3.5 km/h 8.7 km/h 93% 0.0 mm 98 W/m2
16:22 16.9 °C 15.8 °C 1018.5 hPa SE 3.5 km/h 8.7 km/h 93% 0.0 mm 95 W/m2
16:23 16.9 °C 15.8 °C 1018.2 hPa SE 6.1 km/h 9.7 km/h 93% 0.0 mm 87 W/m2
16:24 16.9 °C 15.8 °C 1018.2 hPa SE 5.0 km/h 9.7 km/h 93% 0.0 mm 80 W/m2
16:25 16.9 °C 15.6 °C 1018.5 hPa SE 2.6 km/h 9.7 km/h 92% 0.0 mm 78 W/m2
16:26 16.9 °C 15.6 °C 1018.2 hPa SE 3.5 km/h 9.7 km/h 92% 0.0 mm 73 W/m2
16:27 16.9 °C 15.6 °C 1018.2 hPa Calm   9.7 km/h 92% 0.0 mm 72 W/m2
16:28 16.9 °C 15.4 °C 1018.2 hPa SE 1.1 km/h 9.7 km/h 91% 0.0 mm 74 W/m2
16:29 17.0 °C 15.3 °C 1018.5 hPa SE 5.0 km/h 9.7 km/h 90% 0.0 mm 85 W/m2
16:30 16.9 °C 15.4 °C 1018.5 hPa SE 2.6 km/h 9.7 km/h 91% 0.0 mm 76 W/m2
16:31 17.0 °C 15.2 °C 1018.5 hPa SE 1.1 km/h 9.7 km/h 89% 0.0 mm 71 W/m2
16:32 17.0 °C 15.2 °C 1018.2 hPa SE 1.1 km/h 9.7 km/h 89% 0.0 mm 63 W/m2
16:33 17.0 °C 15.0 °C 1018.5 hPa Calm   9.7 km/h 88% 0.0 mm 62 W/m2
16:34 17.0 °C 15.0 °C 1018.2 hPa Calm   8.7 km/h 88% 0.0 mm 67 W/m2
16:35 17.0 °C 15.0 °C 1018.2 hPa Calm   8.7 km/h 88% 0.0 mm 73 W/m2
16:36 17.1 °C 15.1 °C 1018.2 hPa Calm   8.7 km/h 88% 0.0 mm 80 W/m2
16:37 17.1 °C 15.1 °C 1018.2 hPa SSE 6.1 km/h 11.1 km/h 88% 0.0 mm 81 W/m2
16:38 17.1 °C 15.1 °C 1018.2 hPa SSE 2.6 km/h 11.1 km/h 88% 0.0 mm 79 W/m2
16:39 17.1 °C 14.9 °C 1018.2 hPa SSE 2.6 km/h 11.1 km/h 87% 0.0 mm 76 W/m2
16:40 17.1 °C 14.9 °C 1018.2 hPa SSE 2.6 km/h 11.1 km/h 87% 0.0 mm 73 W/m2
16:41 17.1 °C 14.9 °C 1018.2 hPa SE 5.0 km/h 11.1 km/h 87% 0.0 mm 70 W/m2
16:42 17.1 °C 14.9 °C 1018.2 hPa SE 6.1 km/h 11.1 km/h 87% 0.0 mm 67 W/m2
16:43 17.1 °C 14.7 °C 1018.2 hPa SE 8.7 km/h 12.2 km/h 86% 0.0 mm 68 W/m2
16:44 17.2 °C 14.8 °C 1018.2 hPa ESE 7.2 km/h 12.2 km/h 86% 0.0 mm 65 W/m2
16:45 17.1 °C 14.7 °C 1018.2 hPa ESE 8.7 km/h 12.2 km/h 86% 0.0 mm 57 W/m2
16:46 17.1 °C 14.7 °C 1018.2 hPa ESE 7.2 km/h 12.2 km/h 86% 0.0 mm 56 W/m2
16:47 17.0 °C 14.7 °C 1018.5 hPa ESE 5.0 km/h 12.2 km/h 86% 0.0 mm 56 W/m2
16:48 17.0 °C 14.7 °C 1018.2 hPa East 5.0 km/h 12.2 km/h 86% 0.0 mm 56 W/m2
16:49 17.0 °C 14.7 °C 1018.2 hPa East 2.6 km/h 12.2 km/h 86% 0.0 mm 58 W/m2
16:50 17.0 °C 14.7 °C 1018.2 hPa East 5.0 km/h 12.2 km/h 86% 0.0 mm 60 W/m2
16:51 17.0 °C 14.7 °C 1018.2 hPa East 5.0 km/h 12.2 km/h 86% 0.0 mm 60 W/m2
16:52 17.0 °C 14.7 °C 1018.2 hPa East 5.0 km/h 12.2 km/h 86% 0.0 mm 56 W/m2
16:53 16.9 °C 14.9 °C 1018.2 hPa East 6.1 km/h 12.2 km/h 88% 0.0 mm 54 W/m2
16:54 16.9 °C 14.9 °C 1018.5 hPa East 3.5 km/h 9.7 km/h 88% 0.0 mm 53 W/m2
16:55 16.9 °C 14.9 °C 1018.2 hPa East 3.5 km/h 9.7 km/h 88% 0.0 mm 54 W/m2
16:56 16.9 °C 14.9 °C 1018.5 hPa Calm   9.7 km/h 88% 0.0 mm 58 W/m2
16:57 17.0 °C 14.8 °C 1018.2 hPa East 3.5 km/h 9.7 km/h 87% 0.0 mm 60 W/m2
16:58 17.0 °C 14.8 °C 1018.5 hPa East 5.0 km/h 9.7 km/h 87% 0.0 mm 64 W/m2
16:59 17.0 °C 14.8 °C 1018.2 hPa East 1.1 km/h 9.7 km/h 87% 0.0 mm 75 W/m2
17:00 17.0 °C 14.8 °C 1018.2 hPa East 2.6 km/h 9.7 km/h 87% 0.0 mm 85 W/m2
17:01 17.0 °C 14.8 °C 1018.2 hPa ESE 1.1 km/h 9.7 km/h 87% 0.0 mm 90 W/m2
17:02 17.1 °C 14.9 °C 1018.5 hPa Calm   9.7 km/h 87% 0.0 mm 100 W/m2
17:03 17.1 °C 14.9 °C 1018.2 hPa East 1.1 km/h 9.7 km/h 87% 0.0 mm 110 W/m2
17:04 17.1 °C 14.9 °C 1018.5 hPa Calm   7.2 km/h 87% 0.0 mm 113 W/m2
17:05 17.2 °C 15.0 °C 1018.2 hPa Calm   7.2 km/h 87% 0.0 mm 110 W/m2
17:06 17.2 °C 15.0 °C 1018.5 hPa Calm   7.2 km/h 87% 0.0 mm 114 W/m2
17:07 17.3 °C 15.1 °C 1018.2 hPa Calm   7.2 km/h 87% 0.0 mm 115 W/m2
17:08 17.3 °C 15.1 °C 1018.2 hPa Calm   7.2 km/h 87% 0.0 mm 114 W/m2
17:09 17.4 °C 15.2 °C 1018.2 hPa Calm   6.1 km/h 87% 0.0 mm 112 W/m2
17:10 17.4 °C 15.2 °C 1018.2 hPa ESE 3.5 km/h 6.1 km/h 87% 0.0 mm 106 W/m2
17:11 17.4 °C 15.2 °C 1018.2 hPa East 5.0 km/h 6.1 km/h 87% 0.0 mm 102 W/m2
17:12 17.4 °C 15.1 °C 1018.2 hPa East 3.5 km/h 6.1 km/h 86% 0.0 mm 99 W/m2
17:13 17.4 °C 15.1 °C 1018.2 hPa Calm   6.1 km/h 86% 0.0 mm 97 W/m2
17:14 17.4 °C 15.1 °C 1018.2 hPa Calm   6.1 km/h 86% 0.0 mm 96 W/m2
17:15 17.4 °C 15.1 °C 1018.5 hPa ESE 2.6 km/h 6.1 km/h 86% 0.0 mm 94 W/m2
17:16 17.4 °C 15.1 °C 1018.2 hPa ESE 1.1 km/h 6.1 km/h 86% 0.0 mm 92 W/m2
17:17 17.4 °C 15.1 °C 1018.2 hPa ESE 1.1 km/h 6.1 km/h 86% 0.0 mm 92 W/m2
17:18 17.4 °C 15.1 °C 1018.2 hPa Calm   6.1 km/h 86% 0.0 mm 90 W/m2
17:19 17.4 °C 15.1 °C 1018.5 hPa Calm   6.1 km/h 86% 0.0 mm 86 W/m2
17:20 17.4 °C 15.1 °C 1018.2 hPa ESE 3.5 km/h 6.1 km/h 86% 0.0 mm 78 W/m2
17:21 17.4 °C 15.1 °C 1018.2 hPa ESE 3.5 km/h 6.1 km/h 86% 0.0 mm 68 W/m2
17:22 17.4 °C 14.9 °C 1018.5 hPa ESE 3.5 km/h 9.7 km/h 85% 0.0 mm 59 W/m2
17:23 17.4 °C 14.9 °C 1018.5 hPa ESE 3.5 km/h 9.7 km/h 85% 0.0 mm 52 W/m2
17:24 17.4 °C 14.9 °C 1018.5 hPa Calm   9.7 km/h 85% 0.0 mm 49 W/m2
17:25 17.4 °C 14.9 °C 1018.5 hPa ESE 2.6 km/h 9.7 km/h 85% 0.0 mm 45 W/m2
17:26 17.4 °C 15.1 °C 1018.5 hPa ESE 7.2 km/h 13.4 km/h 86% 0.0 mm 41 W/m2
17:27 17.4 °C 15.1 °C 1018.5 hPa ESE 3.5 km/h 13.4 km/h 86% 0.0 mm 39 W/m2
17:28 17.4 °C 15.1 °C 1018.5 hPa ESE 3.5 km/h 13.4 km/h 86% 0.0 mm 39 W/m2
17:29 17.3 °C 14.9 °C 1018.5 hPa ESE 9.7 km/h 13.4 km/h 86% 0.0 mm 39 W/m2
17:30 17.3 °C 14.9 °C 1018.5 hPa ESE 5.0 km/h 13.4 km/h 86% 0.0 mm 40 W/m2
17:31 17.2 °C 14.8 °C 1018.5 hPa ESE 7.2 km/h 13.4 km/h 86% 0.0 mm 42 W/m2
17:32 17.2 °C 14.8 °C 1018.5 hPa ESE 7.2 km/h 13.4 km/h 86% 0.0 mm 43 W/m2
17:33 17.0 °C 14.7 °C 1018.5 hPa ESE 6.1 km/h 13.4 km/h 86% 0.0 mm 41 W/m2
17:34 17.0 °C 14.7 °C 1018.5 hPa ESE 8.7 km/h 13.4 km/h 86% 0.0 mm 36 W/m2
17:35 16.9 °C 14.7 °C 1018.5 hPa ESE 9.7 km/h 14.8 km/h 87% 0.0 mm 32 W/m2
17:36 16.9 °C 14.7 °C 1018.5 hPa ESE 8.7 km/h 14.8 km/h 87% 0.0 mm 29 W/m2
17:37 16.8 °C 14.6 °C 1018.5 hPa ESE 9.7 km/h 15.8 km/h 87% 0.0 mm 26 W/m2
17:38 16.7 °C 14.7 °C 1018.5 hPa East 7.2 km/h 15.8 km/h 88% 0.0 mm 24 W/m2
17:39 16.7 °C 14.7 °C 1018.5 hPa ESE 5.0 km/h 15.8 km/h 88% 0.0 mm 22 W/m2
17:40 16.6 °C 14.6 °C 1018.5 hPa ESE 7.2 km/h 15.8 km/h 88% 0.0 mm 20 W/m2
17:41 16.6 °C 14.6 °C 1018.5 hPa ESE 9.7 km/h 15.8 km/h 88% 0.0 mm 19 W/m2
17:42 16.5 °C 14.5 °C 1018.5 hPa East 7.2 km/h 15.8 km/h 88% 0.0 mm 18 W/m2
17:43 16.5 °C 14.5 °C 1018.5 hPa East 6.1 km/h 15.8 km/h 88% 0.0 mm 18 W/m2
17:44 16.5 °C 14.5 °C 1018.8 hPa East 7.2 km/h 15.8 km/h 88% 0.0 mm 16 W/m2
17:45 16.4 °C 14.6 °C 1018.5 hPa East 7.2 km/h 15.8 km/h 89% 0.0 mm 14 W/m2
17:46 16.4 °C 14.6 °C 1018.5 hPa East 8.7 km/h 15.8 km/h 89% 0.0 mm 13 W/m2
17:47 16.4 °C 14.6 °C 1018.5 hPa East 8.7 km/h 15.8 km/h 89% 0.0 mm 13 W/m2
17:48 16.4 °C 14.6 °C 1018.5 hPa East 3.5 km/h 12.2 km/h 89% 0.0 mm 14 W/m2
17:49 16.3 °C 14.5 °C 1018.5 hPa East 8.7 km/h 12.2 km/h 89% 0.0 mm 13 W/m2
17:50 16.3 °C 14.5 °C 1018.5 hPa East 6.1 km/h 12.2 km/h 89% 0.0 mm 12 W/m2
17:51 16.3 °C 14.5 °C 1018.5 hPa East 7.2 km/h 12.2 km/h 89% 0.0 mm 11 W/m2
17:52 16.3 °C 14.5 °C 1018.5 hPa East 8.7 km/h 12.2 km/h 89% 0.0 mm 10 W/m2
17:53 16.3 °C 14.5 °C 1018.5 hPa East 6.1 km/h 12.2 km/h 89% 0.0 mm 9 W/m2
17:54 16.3 °C 14.5 °C 1018.5 hPa East 5.0 km/h 12.2 km/h 89% 0.0 mm 8 W/m2
17:55 16.3 °C 14.5 °C 1018.5 hPa East 3.5 km/h 12.2 km/h 89% 0.0 mm 8 W/m2
17:56 16.3 °C 14.5 °C 1018.5 hPa ESE 7.2 km/h 12.2 km/h 89% 0.0 mm 7 W/m2
17:57 16.3 °C 14.5 °C 1018.5 hPa East 5.0 km/h 12.2 km/h 89% 0.0 mm 7 W/m2
17:58 16.2 °C 14.4 °C 1018.5 hPa East 7.2 km/h 11.1 km/h 89% 0.0 mm 7 W/m2
17:59 16.2 °C 14.2 °C 1018.5 hPa East 3.5 km/h 11.1 km/h 88% 0.0 mm 7 W/m2
18:00 16.2 °C 14.2 °C 1018.5 hPa East 5.0 km/h 11.1 km/h 88% 0.0 mm 6 W/m2
18:01 16.2 °C 14.2 °C 1018.5 hPa East 3.5 km/h 11.1 km/h 88% 0.0 mm 6 W/m2
18:02 16.2 °C 14.2 °C 1018.5 hPa East 6.1 km/h 11.1 km/h 88% 0.0 mm 6 W/m2
18:03 16.2 °C 14.2 °C 1018.5 hPa East 5.0 km/h 11.1 km/h 88% 0.0 mm 5 W/m2
18:04 16.2 °C 14.2 °C 1018.8 hPa East 8.7 km/h 11.1 km/h 88% 0.0 mm 5 W/m2
18:05 16.2 °C 14.2 °C 1018.5 hPa East 5.0 km/h 11.1 km/h 88% 0.0 mm 4 W/m2
18:06 16.2 °C 14.2 °C 1018.5 hPa East 3.5 km/h 11.1 km/h 88% 0.0 mm 4 W/m2
18:07 16.2 °C 14.2 °C 1018.5 hPa East 3.5 km/h 11.1 km/h 88% 0.0 mm 4 W/m2
18:09 16.2 °C 14.2 °C 1018.5 hPa East 1.1 km/h 11.1 km/h 88% 0.0 mm 3 W/m2
18:10 16.2 °C 14.2 °C 1018.5 hPa East 3.5 km/h 11.1 km/h 88% 0.0 mm 3 W/m2
18:11 16.2 °C 14.2 °C 1018.8 hPa East 3.5 km/h 11.1 km/h 88% 0.0 mm 2 W/m2
18:12 16.2 °C 14.2 °C 1018.5 hPa East 3.5 km/h 11.1 km/h 88% 0.0 mm 2 W/m2
18:13 16.3 °C 14.3 °C 1018.8 hPa East 3.5 km/h 11.1 km/h 88% 0.0 mm 2 W/m2
18:14 16.3 °C 14.3 °C 1018.8 hPa East 5.0 km/h 11.1 km/h 88% 0.0 mm 2 W/m2
18:15 16.3 °C 14.3 °C 1018.8 hPa East 5.0 km/h 11.1 km/h 88% 0.0 mm 2 W/m2
18:16 16.3 °C 14.3 °C 1018.5 hPa East 2.6 km/h 7.2 km/h 88% 0.0 mm 2 W/m2
18:17 16.3 °C 14.3 °C 1018.5 hPa Calm   7.2 km/h 88% 0.0 mm 2 W/m2
18:18 16.3 °C 14.3 °C 1018.5 hPa East 2.6 km/h 8.7 km/h 88% 0.0 mm 2 W/m2
18:19 16.3 °C 14.3 °C 1018.5 hPa East 6.1 km/h 8.7 km/h 88% 0.0 mm 1 W/m2
18:20 16.3 °C 14.3 °C 1018.5 hPa East 5.0 km/h 8.7 km/h 88% 0.0 mm 1 W/m2
18:21 16.3 °C 14.3 °C 1018.5 hPa East 7.2 km/h 12.2 km/h 88% 0.0 mm 1 W/m2
18:22 16.3 °C 14.3 °C 1018.5 hPa East 7.2 km/h 12.2 km/h 88% 0.0 mm 1 W/m2
18:23 16.3 °C 14.3 °C 1018.5 hPa East 5.0 km/h 12.2 km/h 88% 0.0 mm 0 W/m2
18:24 16.3 °C 14.3 °C 1018.5 hPa East 5.0 km/h 12.2 km/h 88% 0.0 mm 0 W/m2
18:25 16.3 °C 14.3 °C 1018.5 hPa East 5.0 km/h 12.2 km/h 88% 0.0 mm 0 W/m2
18:26 16.3 °C 14.3 °C 1018.5 hPa Calm   12.2 km/h 88% 0.0 mm 0 W/m2
18:27 16.3 °C 14.3 °C 1018.8 hPa East 1.1 km/h 12.2 km/h 88% 0.0 mm 0 W/m2
18:28 16.3 °C 14.3 °C 1018.8 hPa East 3.5 km/h 12.2 km/h 88% 0.0 mm 0 W/m2
18:29 16.3 °C 14.3 °C 1018.8 hPa ESE 2.6 km/h 12.2 km/h 88% 0.0 mm 0 W/m2
18:30 16.3 °C 14.3 °C 1018.5 hPa ESE 5.0 km/h 12.2 km/h 88% 0.0 mm 0 W/m2
18:31 16.3 °C 14.3 °C 1018.8 hPa ESE 2.6 km/h 12.2 km/h 88% 0.0 mm 0 W/m2
18:32 16.3 °C 14.3 °C 1018.8 hPa Calm   12.2 km/h 88% 0.0 mm 0 W/m2
18:34 16.4 °C 14.4 °C 1018.5 hPa Calm   9.7 km/h 88% 0.0 mm 0 W/m2
18:35 16.4 °C 14.4 °C 1018.5 hPa Calm   9.7 km/h 88% 0.0 mm 0 W/m2
18:36 16.4 °C 14.4 °C 1018.5 hPa Calm   9.7 km/h 88% 0.0 mm 0 W/m2
18:37 16.4 °C 14.4 °C 1018.8 hPa ESE 1.1 km/h 11.1 km/h 88% 0.0 mm 0 W/m2
18:38 16.4 °C 14.4 °C 1018.5 hPa Calm   11.1 km/h 88% 0.0 mm 0 W/m2
18:42 16.3 °C 14.3 °C 1018.8 hPa Calm   11.1 km/h 88% 0.0 mm 0 W/m2
18:43 16.4 °C 14.4 °C 1018.8 hPa ESE 1.1 km/h 11.1 km/h 88% 0.0 mm 0 W/m2
18:44 16.4 °C 14.4 °C 1018.5 hPa ESE 1.1 km/h 11.1 km/h 88% 0.0 mm 0 W/m2
18:45 16.4 °C 14.4 °C 1018.8 hPa Calm   11.1 km/h 88% 0.0 mm 0 W/m2
18:46 16.3 °C 14.3 °C 1018.8 hPa Calm   11.1 km/h 88% 0.0 mm 0 W/m2
18:48 16.3 °C 14.3 °C 1018.8 hPa Calm   6.1 km/h 88% 0.0 mm 0 W/m2
18:49 16.3 °C 14.3 °C 1018.8 hPa Calm   6.1 km/h 88% 0.0 mm 0 W/m2
18:50 16.3 °C 14.3 °C 1018.8 hPa Calm   6.1 km/h 88% 0.0 mm 0 W/m2
18:51 16.3 °C 14.3 °C 1018.8 hPa Calm   6.1 km/h 88% 0.0 mm 0 W/m2
18:52 16.3 °C 14.3 °C 1018.8 hPa Calm   6.1 km/h 88% 0.0 mm 0 W/m2
18:53 16.3 °C 14.3 °C 1018.8 hPa Calm   6.1 km/h 88% 0.0 mm 0 W/m2
18:54 16.2 °C 14.2 °C 1018.8 hPa East 6.1 km/h 11.1 km/h 88% 0.0 mm 4 W/m2
18:55 16.3 °C 14.3 °C 1018.8 hPa Calm   6.1 km/h 88% 0.0 mm 0 W/m2
18:56 16.3 °C 14.3 °C 1018.8 hPa Calm   1.1 km/h 88% 0.0 mm 0 W/m2
18:57 16.3 °C 14.3 °C 1018.8 hPa Calm   1.1 km/h 88% 0.0 mm 0 W/m2
18:58 16.3 °C 14.3 °C 1018.8 hPa Calm   1.1 km/h 88% 0.0 mm 0 W/m2
18:59 16.3 °C 14.3 °C 1018.8 hPa Calm   1.1 km/h 88% 0.0 mm 0 W/m2
19:00 16.3 °C 14.3 °C 1018.8 hPa Calm   1.1 km/h 88% 0.0 mm 0 W/m2
19:01 16.3 °C 14.3 °C 1018.8 hPa Calm   1.1 km/h 88% 0.0 mm 0 W/m2
19:03 16.3 °C 14.3 °C 1018.8 hPa Calm   1.1 km/h 88% 0.0 mm 0 W/m2
19:04 16.3 °C 14.3 °C 1018.8 hPa Calm   2.6 km/h 88% 0.0 mm 0 W/m2
19:05 16.3 °C 14.3 °C 1018.8 hPa Calm   2.6 km/h 88% 0.0 mm 0 W/m2
19:06 16.3 °C 14.3 °C 1019.2 hPa Calm   2.6 km/h 88% 0.0 mm 0 W/m2
19:07 16.3 °C 14.3 °C 1018.8 hPa Calm   2.6 km/h 88% 0.0 mm 0 W/m2
19:08 16.3 °C 14.3 °C 1018.8 hPa Calm   2.6 km/h 88% 0.0 mm 0 W/m2
19:09 16.3 °C 14.3 °C 1019.2 hPa Calm   2.6 km/h 88% 0.0 mm 0 W/m2
19:10 16.3 °C 14.3 °C 1018.8 hPa Calm   2.6 km/h 88% 0.0 mm 0 W/m2
19:11 16.3 °C 14.3 °C 1019.2 hPa Calm   2.6 km/h 88% 0.0 mm 0 W/m2
19:13 16.3 °C 14.3 °C 1018.8 hPa Calm   2.6 km/h 88% 0.0 mm 0 W/m2
19:15 16.3 °C 14.3 °C 1019.2 hPa Calm     88% 0.0 mm 0 W/m2
19:16 16.3 °C 14.5 °C 1019.2 hPa Calm     89% 0.0 mm 0 W/m2
19:18 16.3 °C 14.5 °C 1018.8 hPa Calm     89% 0.0 mm 0 W/m2
19:19 16.3 °C 14.3 °C 1018.8 hPa ESE 1.1 km/h 9.7 km/h 88% 0.0 mm 0 W/m2
19:21 16.3 °C 14.5 °C 1018.8 hPa Calm   1.1 km/h 89% 0.0 mm 0 W/m2
19:22 16.3 °C 14.5 °C 1019.2 hPa Calm   1.1 km/h 89% 0.0 mm 0 W/m2
19:23 16.3 °C 14.5 °C 1019.2 hPa Calm   1.1 km/h 89% 0.0 mm 0 W/m2
19:24 16.3 °C 14.5 °C 1019.2 hPa Calm   1.1 km/h 89% 0.0 mm 0 W/m2
19:25 16.3 °C 14.3 °C 1018.8 hPa Calm   11.1 km/h 88% 0.0 mm 0 W/m2
19:26 16.3 °C 14.5 °C 1018.8 hPa Calm   1.1 km/h 89% 0.0 mm 0 W/m2
19:28 16.3 °C 14.5 °C 1019.2 hPa Calm   1.1 km/h 89% 0.0 mm 0 W/m2
19:29 16.4 °C 14.6 °C 1019.2 hPa Calm   1.1 km/h 89% 0.0 mm 0 W/m2
19:33 16.3 °C 14.3 °C 1018.8 hPa Calm   6.1 km/h 88% 0.0 mm 0 W/m2
19:34 16.4 °C 14.6 °C 1019.2 hPa Calm     89% 0.0 mm 0 W/m2
19:37 16.4 °C 14.6 °C 1019.2 hPa Calm     89% 0.0 mm 0 W/m2
19:38 16.4 °C 14.6 °C 1019.2 hPa NE 1.1 km/h 5.0 km/h 89% 0.0 mm 0 W/m2
19:40 16.4 °C 14.6 °C 1019.2 hPa NE 1.1 km/h 5.0 km/h 89% 0.0 mm 0 W/m2
19:41 16.4 °C 14.6 °C 1019.2 hPa Calm   5.0 km/h 89% 0.0 mm 0 W/m2
19:42 16.4 °C 14.6 °C 1019.2 hPa Calm   5.0 km/h 89% 0.0 mm 0 W/m2
19:43 16.4 °C 14.6 °C 1019.2 hPa Calm   5.0 km/h 89% 0.0 mm 0 W/m2
19:44 16.4 °C 14.6 °C 1019.2 hPa Calm   5.0 km/h 89% 0.0 mm 0 W/m2
19:46 16.4 °C 14.6 °C 1019.2 hPa Calm   5.0 km/h 89% 0.0 mm 0 W/m2
19:47 16.4 °C 14.6 °C 1019.2 hPa Calm   5.0 km/h 89% 0.0 mm 0 W/m2
19:48 16.3 °C 14.3 °C 1018.8 hPa Calm   1.1 km/h 88% 0.0 mm 0 W/m2
19:50 16.3 °C 14.7 °C 1019.2 hPa NE 6.1 km/h 11.1 km/h 90% 0.0 mm 0 W/m2
19:53 16.2 °C 14.6 °C 1019.2 hPa NE 2.6 km/h 11.1 km/h 90% 0.0 mm 0 W/m2
19:55 16.2 °C 14.6 °C 1019.5 hPa NE 2.6 km/h 11.1 km/h 90% 0.0 mm 0 W/m2
19:58 16.1 °C 14.6 °C 1019.5 hPa ENE 6.1 km/h 11.1 km/h 91% 0.0 mm 0 W/m2
19:59 16.1 °C 14.6 °C 1019.2 hPa ENE 6.1 km/h 11.1 km/h 91% 0.0 mm 0 W/m2
20:00 16.3 °C 14.3 °C 1018.8 hPa Calm     88% 0.0 mm 0 W/m2
20:02 16.0 °C 14.6 °C 1019.5 hPa Calm   11.1 km/h 91% 0.0 mm 0 W/m2
20:06 16.3 °C 14.5 °C 1018.8 hPa Calm     89% 0.0 mm 0 W/m2
20:07 15.9 °C 14.6 °C 1019.5 hPa Calm   11.1 km/h 92% 0.0 mm 0 W/m2
20:08 15.9 °C 14.6 °C 1019.5 hPa East 1.1 km/h 11.1 km/h 92% 0.0 mm 0 W/m2
20:09 15.9 °C 14.6 °C 1019.5 hPa East 1.1 km/h 9.7 km/h 92% 0.0 mm 0 W/m2
20:10 15.9 °C 14.6 °C 1019.5 hPa East 1.1 km/h 9.7 km/h 92% 0.0 mm 0 W/m2
20:11 15.9 °C 14.6 °C 1019.5 hPa East 2.6 km/h 9.7 km/h 92% 0.0 mm 0 W/m2
20:13 16.3 °C 14.5 °C 1019.2 hPa Calm   1.1 km/h 89% 0.0 mm 0 W/m2
20:14 15.9 °C 14.6 °C 1019.5 hPa Calm   7.2 km/h 92% 0.0 mm 0 W/m2
20:18 16.4 °C 14.6 °C 1019.2 hPa Calm     89% 0.0 mm 0 W/m2
20:21 15.9 °C 14.6 °C 1019.5 hPa Calm   5.0 km/h 92% 0.0 mm 0 W/m2
20:23 15.9 °C 14.6 °C 1019.5 hPa Calm   2.6 km/h 92% 0.0 mm 0 W/m2
20:25 16.4 °C 14.6 °C 1019.2 hPa NE 3.5 km/h 5.0 km/h 89% 0.0 mm 0 W/m2
20:31 16.4 °C 14.6 °C 1019.2 hPa Calm   5.0 km/h 89% 0.0 mm 0 W/m2
20:33 15.9 °C 14.6 °C 1019.9 hPa Calm     92% 0.0 mm 0 W/m2
20:37 16.3 °C 14.7 °C 1019.2 hPa NE 6.1 km/h 11.1 km/h 90% 0.0 mm 0 W/m2
20:42 16.1 °C 14.4 °C 1019.2 hPa ENE 7.2 km/h 11.1 km/h 90% 0.0 mm 0 W/m2
20:47 16.0 °C 14.6 °C 1019.5 hPa ENE 3.5 km/h 11.1 km/h 91% 0.0 mm 0 W/m2
20:52 15.9 °C 14.6 °C 1019.5 hPa East 3.5 km/h 11.1 km/h 92% 0.0 mm 0 W/m2
20:57 16.0 °C 14.6 °C 1020.2 hPa Calm     91% 0.0 mm 0 W/m2
20:58 15.9 °C 14.8 °C 1019.5 hPa Calm   9.7 km/h 93% 0.0 mm 0 W/m2
21:03 15.9 °C 14.6 °C 1019.5 hPa Calm   7.2 km/h 92% 0.0 mm 0 W/m2
21:08 15.9 °C 14.6 °C 1019.9 hPa Calm   2.6 km/h 92% 0.0 mm 0 W/m2
21:13 15.9 °C 14.6 °C 1019.5 hPa Calm     92% 0.0 mm 0 W/m2
21:18 15.9 °C 14.8 °C 1019.5 hPa Calm     93% 0.0 mm 0 W/m2
21:23 15.9 °C 14.6 °C 1019.9 hPa Calm     92% 0.0 mm 0 W/m2
21:28 15.9 °C 14.6 °C 1019.9 hPa Calm     92% 0.0 mm 0 W/m2
21:33 16.0 °C 14.6 °C 1019.9 hPa Calm     91% 0.0 mm 0 W/m2
21:38 16.0 °C 14.7 °C 1019.9 hPa Calm     92% 0.0 mm 0 W/m2
21:44 16.0 °C 14.6 °C 1019.9 hPa Calm     91% 0.0 mm 0 W/m2
21:49 16.0 °C 14.7 °C 1019.9 hPa Calm     92% 0.0 mm 0 W/m2
21:54 16.0 °C 14.7 °C 1020.2 hPa Calm     92% 0.0 mm 0 W/m2
22:00 16.0 °C 14.7 °C 1020.2 hPa Calm     92% 0.0 mm 0 W/m2
22:06 16.2 °C 14.9 °C 1020.2 hPa Calm     92% 0.0 mm 0 W/m2
22:12 16.0 °C 14.7 °C 1020.2 hPa Calm     92% 0.0 mm 0 W/m2
22:18 16.1 °C 14.8 °C 1020.2 hPa Calm     92% 0.0 mm 0 W/m2
22:24 15.8 °C 14.7 °C 1019.9 hPa Calm     93% 0.0 mm 0 W/m2
22:30 15.9 °C 14.8 °C 1020.2 hPa Calm     93% 0.0 mm 0 W/m2
22:36 15.8 °C 14.8 °C 1019.9 hPa Calm     94% 0.0 mm 0 W/m2
22:42 16.2 °C 15.1 °C 1020.2 hPa Calm     93% 0.0 mm 0 W/m2
22:48 15.8 °C 14.8 °C 1019.9 hPa Calm     94% 0.0 mm 0 W/m2
22:54 16.1 °C 15.0 °C 1019.9 hPa Calm     93% 0.0 mm 0 W/m2
23:00 15.8 °C 15.0 °C 1019.9 hPa Calm     95% 0.0 mm 0 W/m2
23:06 16.2 °C 15.2 °C 1019.9 hPa Calm     94% 0.0 mm 0 W/m2
23:12 15.7 °C 14.9 °C 1019.9 hPa Calm     95% 0.0 mm 0 W/m2
23:18 15.3 °C 14.7 °C 1019.9 hPa Calm     96% 0.0 mm 0 W/m2
23:24 15.6 °C 15.0 °C 1019.9 hPa Calm     96% 0.0 mm 0 W/m2
23:30 15.9 °C 15.3 °C 1019.9 hPa Calm     96% 0.0 mm 0 W/m2
23:36 15.6 °C 15.0 °C 1019.5 hPa Calm     96% 0.0 mm 0 W/m2
23:42 15.9 °C 15.3 °C 1019.9 hPa Calm     96% 0.0 mm 0 W/m2
23:48 15.5 °C 14.9 °C 1019.5 hPa Calm     96% 0.0 mm 0 W/m2
23:54 15.7 °C 15.2 °C 1019.5 hPa Calm     97% 0.0 mm 0 W/m2
Northern Hawkes Bay. New Zealand Historic Data
Compliments of Weather Underground - 3.25 mb